Regional Weather Roundup
Issued by NWS Austin/San Antonio, TX

Home | Current Version | Previous Version | Text Only | Print | Product List | Glossary On
Versions: 1 2 3 4 5 6 7 8 9 10 11 12 13 14 15 16 17 18 19 20 21 22 23 24 25 26 27 28 29 30 31 32 33 34 35 36 37 38 39 40 41 42 43 44 45 46 47 48 49 50
598
ASUS44 KEWX 222301
RWREWX
SOUTH TEXAS REGIONAL WEATHER ROUNDUP
NATIONAL WEATHER SERVICE AUSTIN/SAN ANTONIO TX
500 PM CST THU FEB 22 2018

NOTE: "FAIR" INDICATED FEW OR NO CLOUDS BELOW 12,000 FEET WITH NO
SIGNIFICANT WEATHER AND/OR OBSTRUCTIONS TO VISIBILITY.

* - THESE STATIONS ARE NOT NWS OR FAA STATIONS...AND ARE NOT SUBJECT
    TO NWS AND FAA QUALITY CONTROL.

TXZ171-172-183>190-230000-
TEXAS HILL COUNTRY AND EDWARDS PLATEAU

CITY           SKY/WX    TMP DP  RH WIND       PRES   REMARKS
JUNCTION       NOT AVBL
*LLANO         CLOUDY    41  39  93 N6        30.23S WCI  37
BURNET         CLOUDY    41  40  96 N5        30.20S FOG     WCI  38
*HORSESHOE BAY CLOUDY    40  40 100 NW5       30.20S FOG     WCI  37
*KERRVILLE     CLOUDY    51  47  87 CALM      30.16R
*FREDERICKSBRG CLOUDY    45  42  89 CALM      30.17R
*ROCKSPRINGS   CLOUDY    50  48  93 E5        30.17R WCI  48
*BOERNE STAGE  CLOUDY    45  45 100 CALM      30.17R
*CASTROVILLE   CLOUDY    51  49  93 E6        30.17S
HONDO          CLOUDY    54  49  83 NE7       30.15R
*UVALDE        CLOUDY    53  47  82 E5        30.14S
DEL RIO        CLOUDY    56  44  64 W3        30.10F
LAUGHLIN AFB   NOT AVBL
CARRIZO SPRGS  CLOUDY    54  46  76 E5        30.13S
*EAGLE PASS    CLOUDY    57  46  67 E7        30.11F
*FAITH RANCH   CLOUDY    57  50  77 NE6       30.13R
$$

TXZ173-191>194-202-209-217>225-228-230000-
CENTRAL AND SOUTH CENTRAL TEXAS

CITY           SKY/WX    TMP DP  RH WIND       PRES   REMARKS
GEORGETOWN     CLOUDY    41  40  96 N7        30.22R FOG     WCI  36
AUSTIN/BERGSTM CLOUDY    43  43 100 N9        30.20S WCI  38
AUSTIN/MABRY   CLOUDY    44  42  93 N3        30.21R FOG
*AUSTIN/EXEC   NOT AVBL
*LAGO VISTA    LGT RAIN  43  43 100 CALM      30.19S VSB 1/2
SAN MARCOS     CLOUDY    44  43  96 N10       30.19S FOG     WCI  39
NEW BRAUNFELS  LGT RAIN  46  44  93 NE9       30.16F VSB 1   WCI  41
RANDOLPH AFB   CLOUDY    47  46  94 NE8       30.16S FOG     WCI  43
PT SAN ANTONIO CLOUDY    50  48  91 NE6       30.13S WCI  48
SAN ANTONIO    CLOUDY    50  47  89 NE6       30.15F WCI  48
STINSON FIELD  CLOUDY    51  48  89 E7        30.14F FOG
*LA GRANGE     FOG       46  45  99 N8        30.17S VSB 1   WCI  41
*GIDDINGS      FOG       40  39  99 N8        30.19F VSB 1/2 WCI  34
*GONZALES      CLOUDY    45  45 100 N6        30.18S FOG     WCI  42
$$

TXZ163>164-176>182-195>201-210>213-226-227-235-230000-
SOUTHEAST TEXAS

CITY           SKY/WX    TMP DP  RH WIND       PRES   REMARKS
COLLEGE STN    FOG       44  44 100 NW9       30.19S VSB 3/4 WCI  39
*BRYAN         FOG       44  44 100 NW9       30.21R VSB 1   WCI  39
*CALDWELL      CLOUDY    42  42  98 NW9       30.21S FOG     WCI  37
*CROCKETT      FOG       50  50 100 W8        30.21R VSB 1   WCI  47
*BRENHAM       DRZL/FOG  48  48 100 N9        30.19F VSB 1/2 WCI  44
HUNTSVILLE     FOG       53  52  96 NW7       30.17R VSB 1
CONROE         CLOUDY    61  61 100 NW5       30.15S FOG
HOUSTON BUSH   LGT RAIN  70  68  93 NW3       30.14S FOG
HOUSTON HOBBY  CLOUDY    75  73  93 SE13      30.13S
*HOUSTON SW AP CLOUDY    73  71  95 W5        30.14S FOG
PEARLAND       CLOUDY    75  73  93 S13       30.15R
HOUSTON HOOKS  CLOUDY    66  63  90 CALM      30.14S FOG
ELLINGTON FLD  CLOUDY    75  72  88 SE14      30.15R FOG
SUGAR LAND     CLOUDY    66  63  90 NW5       30.14R FOG
*HOUSTON EXEC  CLOUDY    54  54 100 NW6       30.17S FOG
*CLEVELAND MUN TSTM      73  70  89 S3        30.15S
*WHARTON       CLOUDY    56  55  96 N7        30.15F FOG
*COLUMBUS      CLOUDY    50  49  95 N6        30.17S FOG     WCI  48
*EAGLE LAKE    CLOUDY    53  53 100 N7        30.15F FOG
$$

TXZ214>216-236>238-230000-
THE UPPER TEXAS COAST

CITY           SKY/WX    TMP DP  RH WIND       PRES   REMARKS
*ORANGE        CLOUDY    77  72  85 S15       30.18F
PORT ARTHUR    CLOUDY    76  69  79 SE15      30.16S
GALVESTON      CLOUDY    72  69  90 SE15      30.15S FOG
ANGLETON       CLOUDY    77  71  82 S16       30.13S
*BAY CITY      CLOUDY    67  66  95 CALM      30.13R FOG
PALACIOS       CLOUDY    61  61 100 N9        30.13S FOG
$$

TXZ229>234-239>247-230000-
TEXAS COASTAL BEND AND RIO GRANDE PLAINS

CITY           SKY/WX    TMP DP  RH WIND       PRES   REMARKS
VICTORIA       CLOUDY    53  51  93 N7        30.15S FOG
*BEEVILLE      CLOUDY    51  49  95 N8        30.14S
ROCKPORT       CLOUDY    58  55  90 N9        30.13S FOG
*PORT ARANSAS  NOT AVBL
*PORT LAVACA   CLOUDY    57  55  94 N8        30.14S FOG
*INGLESIDE     CLOUDY    57  55  91 MISG      30.12F FOG
CORPUS CHRISTI CLOUDY    56  54  93 N9        30.13S FOG
CORPUS NAS     DRIZZLE   58  57  97 N9        30.12F FOG
*ROBSTOWN      CLOUDY    54  52  95 N7        30.14S FOG
ALICE          CLOUDY    54  50  86 N7        30.14R
KINGSVILLE NAS DRZL/FOG  53  52  96 N8        30.14S VSB 1
COTULLA        CLOUDY    54  49  83 E8        30.13F
LAREDO         CLOUDY    57  50  77 NE8       30.13S
$$

TXZ248>255-230000-
DEEP SOUTH TEXAS

CITY           SKY/WX    TMP DP  RH WIND       PRES   REMARKS
BROWNSVILLE    CLOUDY    70  62  76 NE8       30.11R
PORT ISABEL    CLOUDY    63  58  83 N9        30.10S
*SOUTH PADRE   NOT AVBL
HARLINGEN      CLOUDY    64  59  83 N6        30.11R
*HEBBRONVILLE  CLOUDY    54  51  89 NE5       30.13S
MCALLEN        CLOUDY    61  57  87 N3        30.11F
*WESLACO       CLOUDY    57  55  91 NE6       30.10F FOG
FALFURRIAS     CLOUDY    56  53  89 N6        30.13S
EDINBURG       CLOUDY    58  55  89 N5        30.12F FOG
*ZAPATA        CLOUDY    56  49  77 NE5       30.12S
$$

TXZ213>215-236>238-242>244-246-247-251-254-255-230000-
CMAN STATIONS

STATION/POSITION TIME  TEMP    WIND        PRES    WAVE
                       AIR SEA DIR/SP/G            HT/PER
                 (UTC) (F)     (DEG/KT/KT) (MB)    (FT/S)
SABINE PASS      2230   71 71  140/ 12/ 15 1023.4
SEA RIM ST PARK  2200   71     130/ 11/ 14 1021.9
NORTH JETTY/GLS  2230      66  130/ 14/ 16 1020.7
EAGLE POINT      2230   69 71  150/ 12/ 13 1021.0
MORGANS POINT    2230   71 65  140/  9/ 12 1020.8
PORT O`CONNOR    2230   59 64  340/ 10/ 11 1020.1
MALAQUITE BEACH  2230   87 63  340/  9/ 12 1019.7
BAFFIN BAY       2230   56 66  320/  9/ 10 1020.3
PORT ISABEL      2230   61 67   10/  9/ 11 1019.5
$$




USA.gov is the U.S. government's official web portal to all federal, state and local government web resources and services.